• In Netherlands
  • List of Countries
  • For 7 days
  • Water Temperature
  • Satellite Maps
  • Weather Map
  • Weather Widgets
  • user-avatar
    Login

    Hourly Weather Albena

    Today, 24 April, Monday

    Time Temperature Precipitation Wind Pressure Humidity
    00:00 +3°C° 0 mm 6 mps 748 mmHg 83%
    01:00 +2°C° 0 mm 6 mps 748 mmHg 84%
    02:00 +2°C° 0 mm 6 mps 748 mmHg 83%
    03:00 +2°C° 0 mm 6 mps 748 mmHg 84%
    04:00 +1°C° 0 mm 6 mps 749 mmHg 85%
    05:00 +1°C° 0 mm 6 mps 749 mmHg 86%
    06:00 +2°C° 0 mm 6 mps 749 mmHg 81%
    07:00 +4°C° 0 mm 6 mps 750 mmHg 76%
    08:00 +5°C° 0 mm 6 mps 750 mmHg 71%
    09:00 +7°C° 0 mm 5 mps 750 mmHg 64%
    10:00 +9°C° 0 mm 5 mps 751 mmHg 56%
    11:00 +11°C° 0 mm 4 mps 751 mmHg 49%
    12:00 +12°C° 0 mm 4 mps 751 mmHg 48%
    13:00 +12°C° 0 mm 4 mps 751 mmHg 46%
    14:00 +13°C° 0 mm 4 mps 751 mmHg 45%
    15:00 +13°C° 0 mm 4 mps 751 mmHg 47%
    16:00 +12°C° 0 mm 4 mps 751 mmHg 48%
    17:00 +12°C° 0 mm 4 mps 751 mmHg 49%
    18:00 +10°C° 0 mm 3 mps 751 mmHg 59%
    19:00 +7°C° 0 mm 3 mps 751 mmHg 69%
    20:00 +4°C° 0 mm 3 mps 751 mmHg 79%
    21:00 +4°C° 0 mm 3 mps 751 mmHg 79%
    22:00 +4°C° 0 mm 3 mps 752 mmHg 79%
    23:00 +4°C° 0 mm 3 mps 752 mmHg 79%

    Tomorrow, 25 April, Tuesday

    Time Temperature Precipitation Wind Pressure Humidity
    00:00 +4°C° 0 mm 3 mps 752 mmHg 78%
    01:00 +4°C° 0 mm 3 mps 752 mmHg 77%
    02:00 +4°C° 0 mm 3 mps 752 mmHg 76%
    03:00 +4°C° 0 mm 3 mps 752 mmHg 76%
    04:00 +4°C° 0 mm 3 mps 752 mmHg 76%
    05:00 +3°C° 0 mm 3 mps 752 mmHg 76%
    06:00 +7°C° 0 mm 3 mps 752 mmHg 71%
    07:00 +8°C° 0 mm 4 mps 752 mmHg 66%
    08:00 +11°C° 0 mm 4 mps 753 mmHg 61%
    09:00 +12°C° 0 mm 5 mps 753 mmHg 59%
    10:00 +13°C° 0 mm 5 mps 753 mmHg 56%
    11:00 +14°C° 0 mm 6 mps 753 mmHg 53%
    12:00 +15°C° 0 mm 6 mps 752 mmHg 53%
    13:00 +15°C° 0 mm 6 mps 752 mmHg 53%
    14:00 +15°C° 0 mm 6 mps 752 mmHg 53%
    15:00 +14°C° 0 mm 6 mps 752 mmHg 55%
    16:00 +13°C° 0 mm 6 mps 751 mmHg 57%
    17:00 +11°C° 0 mm 6 mps 751 mmHg 59%
    18:00 +9°C° 0 mm 5 mps 751 mmHg 66%
    19:00 +8°C° 0 mm 5 mps 751 mmHg 72%
    20:00 +6°C° 0 mm 4 mps 751 mmHg 79%
    21:00 +5°C° 0 mm 4 mps 751 mmHg 81%
    22:00 +5°C° 0 mm 4 mps 751 mmHg 83%
    23:00 +5°C° 0 mm 4 mps 751 mmHg 85%

    Day after tomorrow, 26 April, Wednesday

    Time Temperature Precipitation Wind Pressure Humidity
    00:00 +5°C° 0 mm 3 mps 750 mmHg 85%
    01:00 +4°C° 0 mm 3 mps 750 mmHg 86%
    02:00 +4°C° 0 mm 3 mps 750 mmHg 87%
    03:00 +5°C° 0 mm 2 mps 750 mmHg 86%
    04:00 +5°C° 0 mm 2 mps 750 mmHg 86%
    05:00 +5°C° 0 mm 2 mps 750 mmHg 85%
    06:00 +7°C° 0 mm 2 mps 750 mmHg 78%
    07:00 +9°C° 0 mm 2 mps 750 mmHg 70%
    08:00 +11°C° 0 mm 3 mps 750 mmHg 62%
    09:00 +13°C° 0 mm 3 mps 750 mmHg 58%
    10:00 +14°C° 0 mm 3 mps 750 mmHg 54%
    11:00 +17°C° 0 mm 4 mps 750 mmHg 49%
    12:00 +17°C° 0 mm 4 mps 749 mmHg 49%
    13:00 +17°C° 0 mm 4 mps 749 mmHg 49%
    14:00 +18°C° 0 mm 4 mps 749 mmHg 49%
    15:00 +17°C° 0 mm 4 mps 749 mmHg 52%
    16:00 +15°C° 0 mm 4 mps 748 mmHg 55%
    17:00 +15°C° 0 mm 4 mps 748 mmHg 58%
    18:00 +12°C° 0 mm 3 mps 748 mmHg 62%
    19:00 +10°C° 0 mm 3 mps 748 mmHg 67%
    20:00 +8°C° 0 mm 3 mps 748 mmHg 72%
    21:00 +8°C° 0 mm 3 mps 748 mmHg 71%
    22:00 +8°C° 0 mm 3 mps 748 mmHg 71%
    23:00 +7°C° 0 mm 3 mps 748 mmHg 71%

    27 April, Thursday

    Time Temperature Precipitation Wind Pressure Humidity
    00:00 +7°C° 0 mm 3 mps 748 mmHg 73%
    01:00 +7°C° 0 mm 2 mps 748 mmHg 75%
    02:00 +7°C° 0 mm 2 mps 748 mmHg 77%
    03:00 +7°C° 0 mm 2 mps 748 mmHg 78%
    04:00 +7°C° 0 mm 2 mps 748 mmHg 78%
    05:00 +7°C° 0 mm 2 mps 747 mmHg 79%
    06:00 +9°C° 0 mm 2 mps 748 mmHg 73%
    07:00 +12°C° 0 mm 2 mps 748 mmHg 68%
    08:00 +14°C° 0 mm 3 mps 748 mmHg 62%
    09:00 +16°C° 0 mm 3 mps 748 mmHg 59%
    10:00 +18°C° 0 mm 4 mps 748 mmHg 55%
    11:00 +19°C° 0 mm 4 mps 748 mmHg 52%
    12:00 +19°C° 0 mm 4 mps 748 mmHg 52%
    13:00 +20°C° 0 mm 4 mps 747 mmHg 52%
    14:00 +20°C° 0 mm 4 mps 747 mmHg 52%
    15:00 +19°C° 0 mm 4 mps 747 mmHg 55%
    16:00 +18°C° 0 mm 4 mps 747 mmHg 58%
    17:00 +18°C° 0 mm 4 mps 747 mmHg 61%
    18:00 +14°C° 0 mm 3 mps 747 mmHg 65%
    19:00 +12°C° 0 mm 3 mps 747 mmHg 70%
    20:00 +10°C° 0 mm 3 mps 747 mmHg 75%
    21:00 +9°C° 0 mm 3 mps 747 mmHg 74%
    22:00 +9°C° 0 mm 3 mps 747 mmHg 74%
    23:00 +9°C° 0 mm 3 mps 747 mmHg 73%

    28 April, Friday

    Time Temperature Precipitation Wind Pressure Humidity
    00:00 +9°C° 0 mm 3 mps 746 mmHg 74%
    01:00 +9°C° 0 mm 3 mps 746 mmHg 74%
    02:00 +9°C° 0 mm 2 mps 746 mmHg 75%
    03:00 +9°C° 0 mm 2 mps 746 mmHg 75%
    04:00 +9°C° 0 mm 2 mps 745 mmHg 75%
    05:00 +9°C° 0 mm 3 mps 745 mmHg 74%
    06:00 +11°C° 0 mm 3 mps 745 mmHg 69%
    07:00 +13°C° 0 mm 3 mps 745 mmHg 64%
    08:00 +15°C° 0 mm 4 mps 746 mmHg 58%
    09:00 +17°C° 0 mm 4 mps 745 mmHg 56%
    10:00 +17°C° 0 mm 5 mps 745 mmHg 53%
    11:00 +20°C° 0 mm 5 mps 745 mmHg 50%
    12:00 +20°C° 0 mm 5 mps 745 mmHg 50%
    13:00 +21°C° 0 mm 5 mps 744 mmHg 50%
    14:00 +21°C° 0 mm 5 mps 744 mmHg 51%
    15:00 +20°C° 0 mm 5 mps 744 mmHg 54%
    16:00 +20°C° 0 mm 5 mps 743 mmHg 57%
    17:00 +19°C° 0 mm 5 mps 743 mmHg 60%
    18:00 +16°C° 0 mm 5 mps 743 mmHg 63%
    19:00 +14°C° 0 mm 4 mps 743 mmHg 67%
    20:00 +12°C° 0 mm 4 mps 743 mmHg 71%
    21:00 +12°C° 0 mm 4 mps 743 mmHg 72%
    22:00 +12°C° 0 mm 4 mps 743 mmHg 74%
    23:00 +12°C° 0 mm 4 mps 742 mmHg 75%

    29 April, Saturday

    Time Temperature Precipitation Wind Pressure Humidity
    00:00 +11°C° 0 mm 4 mps 742 mmHg 75%
    01:00 +11°C° 0 mm 4 mps 742 mmHg 75%
    02:00 +11°C° 0 mm 4 mps 742 mmHg 75%
    03:00 +11°C° 0 mm 4 mps 742 mmHg 72%
    04:00 +11°C° 0 mm 4 mps 742 mmHg 70%
    05:00 +12°C° 0 mm 4 mps 742 mmHg 68%
    06:00 +13°C° 0 mm 4 mps 742 mmHg 71%
    07:00 +15°C° 0 mm 4 mps 743 mmHg 73%
    08:00 +18°C° 0 mm 4 mps 743 mmHg 76%
    09:00 +19°C° 0 mm 4 mps 743 mmHg 73%
    10:00 +20°C° 0 mm 4 mps 743 mmHg 69%
    11:00 +21°C° 0 mm 4 mps 744 mmHg 66%
    12:00 +21°C° 0 mm 4 mps 744 mmHg 66%
    13:00 +21°C° 0 mm 3 mps 744 mmHg 66%
    14:00 +21°C° 0 mm 3 mps 744 mmHg 66%
    15:00 +20°C° 0 mm 3 mps 744 mmHg 69%
    16:00 +20°C° 0 mm 3 mps 744 mmHg 71%
    17:00 +19°C° 0 mm 3 mps 744 mmHg 73%
    18:00 +18°C° 0 mm 3 mps 744 mmHg 78%
    19:00 +16°C° 0 mm 3 mps 744 mmHg 83%
    20:00 +14°C° 0 mm 4 mps 744 mmHg 87%
    21:00 +13°C° 0 mm 3 mps 744 mmHg 88%
    22:00 +13°C° 0 mm 3 mps 744 mmHg 89%
    23:00 +12°C° 0 mm 3 mps 744 mmHg 89%
    Show more